Regional Weather Roundup
Issued by NWS Sterling, VA

Home | Current Version | Previous Version | Graphics & Text | Print | Product List | Glossary On
Versions: 1 2 3 4 5 6 7 8 9 10 11 12 13 14 15 16 17 18 19 20 21 22 23 24 25 26 27 28 29 30 31 32 33 34 35 36 37 38 39 40 41 42 43 44 45 46 47 48 49 50
135
ASUS41 KLWX 202210
RWRLWX

REGIONAL WEATHER ROUNDUP
NATIONAL WEATHER SERVICE BALTIMORE MD/WASHINGTON DC
500 PM EST MON FEB 20 2017

Note: "FAIR" indicates few or no clouds below 12,000 feet
with no significant weather and/or obstructions to visibility.
 TC=TEMPERATURE CELSIUS

 * =Non NWS site. Station does not report precipitation (e.g. rain,
    snow, etc.), thunder, or fog.

DCZ001-MDZ009-015-VAZ040>042-051-053>054-202300-
WASHINGTON METRO

CITY           SKY/WX    TMP DP  RH WIND       PRES   REMARKS
WASHINGTON NAT PTCLDY    65  30  27 N10       30.21R
DULLES         PTCLDY    64  29  26 NE8       30.21R
ANDREWS AFB    CLEAR     62  32  32 N9        30.20R
FT BELVOIR     CLEAR     65  28  24 NW8       30.20R
QUANTICO       CLEAR     61  36  39 E10       30.21R
COLLEGE PARK*  CLEAR     61  30  31 N6        30.21R
LEESBURG*      CLEAR     64  34  32 NE13      30.22R
MANASSAS*      CLEAR     65  35  33 NE8       30.20R
GAITHERSBURG*  CLEAR     63  28  27 N3        30.25R

$$

MDZ006>007-011-014-202300-
BALTIMORE METRO

CITY           SKY/WX    TMP DP  RH WIND       PRES   REMARKS
BWI AIRPORT    PTCLDY    61  29  29 N8        30.22R
MD SCIENCE CTR   N/A     60  27  28 MISG      30.22R
MARTIN STATE   PTCLDY    55  32  41 N5        30.23R
ANNAPOLIS      CLEAR     57  33  40 NE8       30.22R
FORT MEADE*    CLEAR     59  30  33 N3        30.24R

$$

MDZ012-015-019>023-202300-
MARYLAND EASTERN SHORE

CITY           SKY/WX    TMP DP  RH WIND       PRES   REMARKS
OCEAN CITY     CLEAR     56  32  40 NE9       30.20R
SALISBURY      CLEAR     59  34  39 N9        30.20R
BAY BRIDGE AP* CLEAR     59  32  36 N6        30.23R
EASTON*        PTCLDY    59  30  33 N8        30.25R

$$

MDZ017>025-202300-
SOUTHERN MARYLAND

CITY           SKY/WX    TMP DP  RH WIND       PRES   REMARKS
PATUXENT RIVER CLEAR     57  35  43 N8        30.21R
ST INIGOES     CLEAR     59  31  34 N7        30.21R
LEONARDTOWN*   CLEAR     57  30  35 NE3       30.23R

$$

MDZ003>005-202300-
NORTH CENTRAL MARYLAND

CITY           SKY/WX    TMP DP  RH WIND       PRES   REMARKS
FREDERICK*     CLEAR     63  32  31 NE6       30.24R
HAGERSTOWN APT CLEAR     62  30  29 NE9       30.21R
WESTMINSTER*   CLEAR     57  34  41 NE6       30.23R

$$

MDZ501>502-202300-
WESTERN MARYLAND

CITY           SKY/WX    TMP DP  RH WIND       PRES   REMARKS
OAKLAND*       SUNNY     55  28  35 CALM      30.22S
CUMBERLAND*    CLEAR     68  27  21 CALM      30.22R

$$

VAZ025>031-202300-
SHENANDOAH VALLEY

CITY           SKY/WX    TMP DP  RH WIND       PRES   REMARKS
WINCHESTER*    CLEAR     63  34  34 CALM      30.20R
FRONT ROYAL*   CLEAR     64  37  36 E5        30.18R
LURAY*         CLEAR     68  37  32 CALM      30.19R
NEW MARKET*    SUNNY     66  31  27 CALM      30.18R
STAUNTON*      MOSUNNY   65  36  34 CALM      30.21R
WAYNESBORO*    MOSUNNY   66  28  24 N5        30.19R

$$

WVZ021-048>050-054>055-202300-
EASTERN WEST VIRGINIA PANHANDLE

CITY           SKY/WX    TMP DP  RH WIND       PRES   REMARKS
MARTINSBURG    CLEAR     63  30  28 NE8       30.20R
PETERSBURG*    SUNNY     66  37  34 SE5       30.19R

$$

VAZ036>039-050-202300-
CENTRAL FOOTHILLS

CITY           SKY/WX    TMP DP  RH WIND       PRES   REMARKS
CHARLOTTESVILL SUNNY     69  31  24 CALM      30.18R
CULPEPER*      CLEAR     68  38  33 NE5       30.20R
ORANGE*        CLEAR     64  36  34 CALM      30.21R
GORDONSVILLE*  CLEAR     65  37  34 MISG      30.18R
WARRENTON*     CLEAR     68  29  23 NE7       30.20R

$$

VAZ055>057-202300-
NORTH AND CENTRAL PIEDMONT

CITY           SKY/WX    TMP DP  RH WIND       PRES   REMARKS
FREDERICKSBRG* CLEAR     66  38  35 NE6       30.19R
STAFFORD*      CLEAR     65  35  31 N3        30.24R

$$

NCZ024-NYZ072-PAZ021-071-VAZ022-071-202300-
OTHER REGIONAL OBSERVATIONS

CITY           SKY/WX    TMP DP  RH WIND       PRES   REMARKS
NEW YORK CITY  CLEAR     52  10  18 N9        30.23R
PHILADELPHIA   PTCLDY    56  20  24 N15       30.22R
PITTSBURGH     CLOUDY    59  31  34 CALM      30.21S
ROANOKE        PTSUNNY   69  30  23 E7        30.19R
RICHMOND       MOCLDY    66  39  37 NE5       30.19R
RALEIGH        CLOUDY    70  32  24 E6        30.18R

$$

ANZ530>537-202300-
MARINE OBSERVATIONS

STATION/POSITION TIME  TEMP    WIND        PRES
                       AIR SEA DIR/SP/G
                 (UTC) (F)     (DEG/KT/KT) (MB)
THOMAS PT LIGHT  2200   55 43   40/ 13/ 13   N/A
BALT KEY BRIDGE  2148   59      10/ 13/ 15 1023.2R
COVE POINT       2148   53      20/  6/  9 1023.7R
LEWISETTA        2148   55 47   60/  4/  5 1022.7R
SOLOMONS ISLAND  2148           30/  7/ 11   N/A
PINEY POINT      2148           70/  6/  7   N/A

$$





USA.gov is the U.S. government's official web portal to all federal, state and local government web resources and services.